Flag for U.S.A. Weather past 2 weeks in Dayton, Ohio, U.S.A.

Now
82 °F

Passing clouds.


Feels Like: 84 °F
Forecast: 70 / 83 °F
Wind: 18 mph from Southwest

Location: Dayton / Wright-Patterson Air Force Base

Current Time: May 30, 2015 at 1:33:07 PM

Latest Report: May 30, 2015 at 12:58 PM


Visibility: 10 mi

Pressure: 30.02 "Hg

Humidity: 57%

Dew point: 65 °F

Location of DaytonLocation

Historic Weather in Dayton — Graph

°F

Dayton temperature yesterday

Maximum temperature yesterday: 85 °F (at 5:58 PM)
Minimum temperature yesterday: 66 °F (at 2:58 AM)
Average temperature yesterday: 75 °F

Past Weeks' High & Low Weather Summary

 TemperatureHumidityPressure
High86 °F (May 26, 2:58 PM)100% (May 16, 3:58 AM)30.40 "Hg (May 16, 3:58 AM)
Low42 °F (May 20, 6:58 AM)28% (May 23, 3:58 PM)29.96 "Hg (May 26, 3:58 PM)
Average68 °F72%30.12 "Hg
* Reported May 15 11:58 AM — May 30 11:58 AM, Dayton, Weather by CustomWeather, © 2015

Note: Actual official high and low records may vary slightly from our data, if they occured in-between our weather recording intervals... More about our weather records

Advertising

Dayton weather history for previous 24 hours

 ConditionsComfort  
Time TempWeatherWind HumidityBarometerVisibility
11:58 AM
Sat, May 30
81 °FScattered clouds.13 mph65%30.05 "Hg10 mi
10:58 AM80 °FScattered clouds.15 mph69%30.05 "Hg10 mi
9:58 AM77 °FScattered clouds.10 mph74%30.06 "Hg10 mi
8:58 AM75 °FSunny.12 mph78%30.06 "Hg10 mi
7:58 AM72 °FSunny.8 mph86%30.06 "Hg10 mi
6:58 AM69 °FClear.8 mph93%30.06 "Hg10 mi
5:58 AM68 °FClear.6 mph95%30.04 "Hg10 mi
4:58 AM69 °FClear.7 mph92%30.04 "Hg10 mi
3:58 AM70 °FClear.7 mph90%30.04 "Hg10 mi
2:58 AM71 °FPassing clouds.9 mph86%30.04 "Hg10 mi
1:58 AM72 °FPassing clouds.6 mph84%30.05 "Hg10 mi
12:58 AM73 °FClear.8 mph80%30.05 "Hg10 mi
11:58 PM
Fri, May 29
74 °FClear.8 mph76%30.06 "Hg10 mi
10:58 PM76 °FPassing clouds.10 mph73%30.06 "Hg10 mi
9:58 PM76 °FPassing clouds.9 mph70%30.05 "Hg10 mi
8:58 PM78 °FSunny.10 mph64%30.04 "Hg10 mi
7:58 PM80 °FPassing clouds.10 mph60%30.04 "Hg10 mi
6:58 PM83 °FScattered clouds.15 mph54%30.04 "Hg10 mi
5:58 PM85 °FPassing clouds.15 mph49%30.05 "Hg10 mi
4:58 PM84 °FSunny.12 mph52%30.06 "Hg10 mi
3:58 PM84 °FScattered clouds.14 mph56%30.08 "Hg10 mi
2:58 PM82 °FPassing clouds.14 mph58%30.10 "Hg10 mi
1:58 PM80 °FBroken clouds.14 mph67%30.14 "Hg10 mi
Weather by CustomWeather, © 2015

See weather overviewHow to use our weather pages